Location: Sternwarte Stuttgart
(48.7670°N, 9.1830°E)
Time: 07:14:58
(UTC+02:00)

In-Cosmos 22 Rocket - Pass Details

Date: 24 January 2019
Orbit: 791 x 887 km, 81.2° (Epoch: 17 April)

Event Time Altitude Azimuth Distance (km) Brightness Sun altitude
Rises 07:02:10 0° 347° (NNW) 3,305 7.0 -10.1°
Reaches altitude 10° 07:04:33 10° 348° (NNW) 2,369 6.2 -9.7°
Maximum altitude 07:09:53 88° 259° (W) 801 4.1 -8.9°
Drops below altitude 10° 07:15:13 10° 171° (S) 2,367 6.9 -8.1°
Sets 07:17:36 0° 171° (S) 3,302 7.7 -7.7°
